Regional Weather Roundup
Issued by NWS San Angelo, TX

Home | Current Version | Previous Version | Text Only | Print | Product List | Glossary On
Versions: 1 2 3 4 5 6 7 8 9 10 11 12 13 14 15 16 17 18 19 20 21 22 23 24 25 26 27 28 29 30 31 32 33 34 35 36 37 38 39 40 41 42 43 44 45 46 47 48 49 50
000
ASUS44 KSJT 031558
RWRSJT
WEST CENTRAL TEXAS REGIONAL WEATHER ROUNDUP
NATIONAL WEATHER SERVICE SAN ANGELO TX
1100 AM CDT WED JUN 03 2015

NOTE: "FAIR" INDICATES FEW OR NO CLOUDS BELOW 12,000 FEET WITH NO
SIGNIFICANT WEATHER AND/OR OBSTRUCTIONS TO VISIBILITY.

TXZ049-054-064>066-071>073-076>078-098-099-113-114-127-128-139-140-
154-155-168>170-031700
...LOCATIONS ACROSS WEST CENTRAL TEXAS...

CITY           SKY/WX    TMP DP  RH WIND       PRES   REMARKS
SAN ANGELO     SUNNY     79  68  69 S15       29.94F
ABILENE        SUNNY     81  67  62 S15       29.94R
DYESS AFB      NOT AVBL
JUNCTION       CLOUDY    78  66  66 SW9       29.97S
SWEETWATER     NOT AVBL
BROWNWOOD      NOT AVBL
COLEMAN        NOT AVBL
SONORA         NOT AVBL
OZONA          NOT AVBL
BRADY          NOT AVBL
$$

TEXAS PANHANDLE/OKLAHOMA PANHANDLE

CITY           SKY/WX    TMP DP  RH WIND       PRES   REMARKS
AMARILLO       SUNNY     78  63  59 S14       29.92S
BORGER         SUNNY     82  61  48 S12       29.88S
CANADIAN       NOT AVBL
DALHART        SUNNY     81  55  40 W8        29.91F
DUMAS          NOT AVBL
GUYMON         NOT AVBL
HEREFORD       NOT AVBL
PAMPA          NOT AVBL
PERRYTON       NOT AVBL
$$

SOUTHERN PANHANDLE/SOUTH PLAINS/ROLLING PLAINS

CITY           SKY/WX    TMP DP  RH WIND       PRES   REMARKS
LUBBOCK        MOSUNNY   77  64  64 S13       29.93S
SNYDER         NOT AVBL
CHILDRESS      SUNNY     81  65  58 S14       29.89S
SEMINOLE       NOT AVBL
$$

PERMIAN BASIN

CITY           SKY/WX    TMP DP  RH WIND       PRES   REMARKS
MIDLAND        SUNNY     80  63  55 S17       29.93S
ODESSA         SUNNY     80  62  54 S14       29.93F
WINK           SUNNY     83  61  47 SE9       29.89F
$$

FAR WEST/SOUTHWEST MOUNTAINS/TRANS PECOS

CITY           SKY/WX    TMP DP  RH WIND       PRES   REMARKS
ALPINE         NOT AVBL
DRYDEN           N/A     80  66  62 VRB7      29.93S
EL PASO        SUNNY     86  26  11 SW16      30.00S
FORT STOCKTON  SUNNY     84  61  45 SE9       29.92F
GUADALUPE PASS SUNNY     81  32  17 W20       30.10F
MARFA          NOT AVBL
PECOS          NOT AVBL
$$

DALLAS/FORT WORTH METROPLEX

CITY           SKY/WX    TMP DP  RH WIND       PRES   REMARKS
DFW AIRPORT    MOSUNNY   82  66  58 S12       29.94S
FTW MEACHAM    SUNNY     85  67  54 S7        29.94S
DAL-EXECUTIVE  SUNNY     82  68  62 VRB6      29.95S
GRAND PRAIRIE  SUNNY     82  68  61 SE9       29.96S
ADDISON        NOT AVBL
MESQUITE       NOT AVBL
LANCASTER      NOT AVBL
$$

NORTH CENTRAL TEXAS

CITY           SKY/WX    TMP DP  RH WIND       PRES   REMARKS
SHRMAN/DENISON NOT AVBL
GAINESVILLE    NOT AVBL
BRIDGEPORT     NOT AVBL
DENTON         NOT AVBL
WAXAHACHIE     NOT AVBL
GRANBURY       NOT AVBL
$$

WESTERN NORTH TEXAS

CITY           SKY/WX    TMP DP  RH WIND       PRES   REMARKS
WICHITA FALLS  SUNNY     83  66  56 S14       29.91F
VERNON         NOT AVBL
BRECKENRIDGE   NOT AVBL
COMANCHE       NOT AVBL
$$

CENTRAL AND SOUTH CENTRAL TEXAS

CITY           SKY/WX    TMP DP  RH WIND       PRES   REMARKS
AUSTIN/BERGSTM MOSUNNY   80  68  66 S9G17     29.96S
WACO           SUNNY     84  66  54 S12       29.95S
HILLSBORO      NOT AVBL
TEMPLE         NOT AVBL
KILLEEN-GRAY   NOT AVBL
FORT HOOD      NOT AVBL
GEORGETOWN     SUNNY     82  66  57 S14       29.95F
LAGO VISTA     NOT AVBL
SAN MARCOS     PTSUNNY   82  66  57 S9        29.97F
NEW BRAUNFELS  MOSUNNY   83  68  60 S10       29.96S
RANDOLPH AFB   NOT AVBL
SAN ANTONIO    MOSUNNY   81  70  69 SE9       29.97F
STINSON        NOT AVBL
PLEASANTON     NOT AVBL
LA GRANGE      NOT AVBL
GIDDINGS       NOT AVBL
$$

EAST TEXAS

CITY           SKY/WX    TMP DP  RH WIND       PRES   REMARKS
PARIS          NOT AVBL
CLARKSVILLE    NOT AVBL
TYLER          SUNNY     82  66  58 S9        29.97F
LONGVIEW       SUNNY     81  66  60 VRB7      29.97F
PALESTINE      NOT AVBL
NACOGDOCHES    NOT AVBL
$$

TEXAS HILL COUNTRY AND EDWARDS PLATEAU

CITY           SKY/WX    TMP DP  RH WIND       PRES   REMARKS
LLANO          NOT AVBL
HORSESHOE BAY  NOT AVBL
KERRVILLE      NOT AVBL
FREDERICKSBRG  NOT AVBL
ROCKSPRINGS    NOT AVBL
HONDO          MOSUNNY   79  70  74 S9        29.98S
UVALDE         NOT AVBL
DEL RIO        NOT AVBL
$$

SOUTHEAST TEXAS

CITY           SKY/WX    TMP DP  RH WIND       PRES   REMARKS
COLLEGE STN    NOT AVBL
CALDWELL       NOT AVBL
CROCKETT       NOT AVBL
BRENHAM        NOT AVBL
HUNTSVILLE     NOT AVBL
CONROE         NOT AVBL
HOUSTON BUSH   NOT AVBL
HOUSTON HOBBY  NOT AVBL
PERLAND        NOT AVBL
WHARTON        NOT AVBL
$$

THE UPPER TEXAS COAST

CITY           SKY/WX    TMP DP  RH WIND       PRES   REMARKS
ORANGE         NOT AVBL
PORT ARTHUR    MOSUNNY   84  68  58 CALM      29.95F
GALVESTON      PTSUNNY   82  69  64 NW6       29.97S
ANGLETON       NOT AVBL
BAY CITY       NOT AVBL
$$

TEXAS COASTAL BEND, RIO GRANDE PLAINS DEEP SOUTH TEXAS

CITY           SKY/WX    TMP DP  RH WIND       PRES   REMARKS
VICTORIA       MOSUNNY   83  71  67 SW6       29.95F
BEEVILLE       NOT AVBL
ROCKPORT       NOT AVBL
PORT ARANSAS   NOT AVBL
PORT LAVACA    NOT AVBL
CORPUS CHRISTI MOSUNNY   85  71  63 CALM      29.93S
KINGSVILLE NAS MOSUNNY   86  75  69 S9        29.93S
COTULLA        NOT AVBL
LAREDO         NOT AVBL
BROWNSVILLE    MOSUNNY   85  70  60 S10       29.92S
PORT ISABEL    MOSUNNY   85  73  67 S8        29.91S
HEBBRONVILLE   NOT AVBL
MCALLEN        NOT AVBL
WESLACO        NOT AVBL
FALFURRIAS     NOT AVBL
EDINBURG       NOT AVBL
$$


USA.gov is the U.S. government's official web portal to all federal, state and local government web resources and services.